Location: Unspecified
(42.3650°N, 71.1030°W)
Time: 16:08:33
(UTC+00:00)

Transit 2A - Pass Details

Date: 29 June 2024
Orbit: 591 x 960 km, 66.7° (Epoch: 16 July)

Event Time Altitude Azimuth Distance (km) Brightness Sun altitude
Rises 03:14:13 0° 328° (NNW) 3,565 10.9 -21.0°
Reaches altitude 10° 03:16:43 10° 327° (NNW) 2,651 9.9 -21.1°
Maximum altitude 03:22:58 79° 242° (WSW) 980 6.4 -21.6°
Enters shadow 03:25:16 42° 163° (SSE) 1,336 6.7 -21.7°
